Test XHTML 1.0 Strict Page for WU-History Testing
Histórico de la Estación METEOFIGUERES
 
Diario Datos del Febrero 16, 2019 Unidades:  Metrico    Inglés   Ambos
« Prev Dia
Sig Dia »
Diario Semanal Mensual Anual Rango
  Actual: Max: Min: Media:
Temp: -11 °C -17.8 °C -16.6 °C -14.9 °C
Rocío: -13.8 °C -17.8 °C -17.2 °C -15.7 °C
Humedad: 71 % Humidity % 71 % 90 %
Vel. viento: 0 km/h 0 km/h 0 km/h 0.6 km/h
Racha: 0 km/h 0 km/h - -
Viento:Calm - - SW
Presión: 34892.7 hPa 0 hPa 34838.6 hPa -
Lluvia: 7.62 mm      
Historical Graphs
 
 
Busqueda de Febrero 16, 2019
Hora Temp Rocío Presión Viento Vel. viento Racha Humedad Ratio lluvia (/hora) Radiación
-17.8 °C -17.8 °C 0 hPa Calm     Humidity % 0 mm SolarRadiationWatts/m^2 W/m2
00:00 -14.4 °C -15.2 °C 34841.9 hPa Calm   2.6 km/h 90 % 0 mm 0.00 W/m2
00:05 -14.4 °C -15.3 °C 34838.6 hPa West 5.1 km/h 7.7 km/h 90 % 0 mm 0.00 W/m2
00:10 -14.4 °C -15.3 °C 34838.6 hPa SW 7.7 km/h 12.9 km/h 90 % 0 mm 0.00 W/m2
00:15 -14.4 °C -15.2 °C 34838.6 hPa SW 2.6 km/h 7.7 km/h 90 % 0 mm 0.00 W/m2
00:20 -14.4 °C -15.2 °C 34841.9 hPa Calm     90 % 0 mm 0.00 W/m2
00:25 -14.4 °C -15.2 °C 34838.6 hPa Calm     90 % 0 mm 0.00 W/m2
00:30 -14.5 °C -15.4 °C 34838.6 hPa Calm     89 % 0 mm 0.00 W/m2
00:35 -14.6 °C -15.5 °C 34841.9 hPa Calm     89 % 0 mm 0.00 W/m2
00:40 -14.6 °C -15.6 °C 34838.6 hPa Calm     89 % 0 mm 0.00 W/m2
00:45 -14.8 °C -15.7 °C 34838.6 hPa Calm     89 % 0 mm 0.00 W/m2
00:50 -14.8 °C -15.8 °C 34838.6 hPa Calm     89 % 0 mm 0.00 W/m2
00:55 -14.9 °C -15.8 °C 34841.9 hPa Calm     89 % 0 mm 0.00 W/m2
01:00 -15 °C -15.9 °C 34841.9 hPa Calm     89 % 0 mm 0.00 W/m2
01:05 -15.1 °C -16 °C 34841.9 hPa Calm     89 % 0 mm 0.00 W/m2
01:10 -15.2 °C -16.1 °C 34841.9 hPa Calm     89 % 0 mm 0.00 W/m2
01:15 -15.2 °C -16.2 °C 34841.9 hPa Calm     89 % 0 mm 0.00 W/m2
01:20 -15.3 °C -16.3 °C 34845.3 hPa Calm     89 % 0 mm 0.00 W/m2
01:25 -15.4 °C -16.3 °C 34845.3 hPa Calm     89 % 0 mm 0.00 W/m2
01:30 -15.4 °C -16.3 °C 34845.3 hPa Calm     90 % 0 mm 0.00 W/m2
01:35 -15.4 °C -16.3 °C 34841.9 hPa Calm     90 % 0 mm 0.00 W/m2
01:40 -15.4 °C -16.3 °C 34845.3 hPa Calm     90 % 0 mm 0.00 W/m2
01:45 -15.4 °C -16.2 °C 34845.3 hPa Calm     91 % 0 mm 0.00 W/m2
01:50 -15.4 °C -16.2 °C 34845.3 hPa Calm     91 % 0 mm 0.00 W/m2
01:55 -15.4 °C -16.2 °C 34841.9 hPa SW 5.1 km/h 7.7 km/h 91 % 0 mm 0.00 W/m2
02:00 -15.4 °C -16.2 °C 34845.3 hPa SW 2.6 km/h 5.1 km/h 91 % 0 mm 0.00 W/m2
02:05 -15.5 °C -16.3 °C 34845.3 hPa SSW 5.1 km/h 10.3 km/h 90 % 0 mm 0.00 W/m2
02:10 -15.5 °C -16.2 °C 34845.3 hPa SW 7.7 km/h 12.9 km/h 91 % 0 mm 0.00 W/m2
02:15 -15.4 °C -16.2 °C 34848.7 hPa SW 5.1 km/h 10.3 km/h 91 % 0 mm 0.00 W/m2
02:20 -15.4 °C -16.2 °C 34848.7 hPa Calm   2.6 km/h 91 % 0 mm 0.00 W/m2
02:25 -15.4 °C -16.2 °C 34848.7 hPa Calm     91 % 0 mm 0.00 W/m2
02:30 -15.5 °C -16.2 °C 34852.1 hPa Calm     91 % 0 mm 0.00 W/m2
02:35 -15.6 °C -16.4 °C 34852.1 hPa Calm     90 % 0 mm 0.00 W/m2
02:40 -15.6 °C -16.4 °C 34852.1 hPa Calm     90 % 0 mm 0.00 W/m2
02:45 -15.7 °C -16.6 °C 34852.1 hPa Calm     90 % 0 mm 0.00 W/m2
02:50 -15.8 °C -16.6 °C 34852.1 hPa Calm   2.6 km/h 90 % 0 mm 0.00 W/m2
02:55 -15.8 °C -16.5 °C 34855.5 hPa Calm     91 % 0 mm 0.00 W/m2
03:00 -15.7 °C -16.4 °C 34855.5 hPa Calm     92 % 0 mm 0.00 W/m2
03:05 -15.7 °C -16.4 °C 34858.9 hPa Calm     91 % 0 mm 0.00 W/m2
03:10 -15.7 °C -16.4 °C 34855.5 hPa Calm     91 % 0 mm 0.00 W/m2
03:15 -15.7 °C -16.4 °C 34855.5 hPa Calm     91 % 0 mm 0.00 W/m2
03:20 -15.8 °C -16.5 °C 34852.1 hPa Calm     91 % 0 mm 0.00 W/m2
03:25 -15.8 °C -16.5 °C 34852.1 hPa Calm     91 % 0 mm 0.00 W/m2
03:30 -15.8 °C -16.5 °C 34852.1 hPa Calm     91 % 0 mm 0.00 W/m2
03:35 -15.8 °C -16.4 °C 34848.7 hPa Calm     92 % 0 mm 0.00 W/m2
03:40 -15.8 °C -16.4 °C 34852.1 hPa Calm     92 % 0 mm 0.00 W/m2
03:45 -15.7 °C -16.4 °C 34852.1 hPa Calm     92 % 0 mm 0.00 W/m2
03:50 -15.7 °C -16.2 °C 34852.1 hPa Calm     93 % 0 mm 0.00 W/m2
03:55 -15.6 °C -16.2 °C 34852.1 hPa Calm     93 % 0 mm 0.00 W/m2
04:00 -15.6 °C -16.2 °C 34852.1 hPa Calm     93 % 0 mm 0.00 W/m2
04:10 -15.6 °C -16.3 °C 34848.7 hPa Calm     92 % 0 mm 0.00 W/m2
04:15 -15.6 °C -16.3 °C 34852.1 hPa Calm     92 % 0 mm 0.00 W/m2
04:20 -15.7 °C -16.3 °C 34852.1 hPa Calm     92 % 0 mm 0.00 W/m2
04:25 -15.7 °C -16.4 °C 34852.1 hPa Calm     92 % 0 mm 0.00 W/m2
04:30 -15.7 °C -16.4 °C 34852.1 hPa Calm     92 % 0 mm 0.00 W/m2
04:35 -15.8 °C -16.4 °C 34852.1 hPa Calm     92 % 0 mm 0.00 W/m2
04:40 -15.8 °C -16.4 °C 34852.1 hPa Calm     92 % 0 mm 0.00 W/m2
04:45 -15.8 °C -16.5 °C 34858.9 hPa Calm     92 % 0 mm 0.00 W/m2
04:50 -15.9 °C -16.6 °C 34855.5 hPa Calm     92 % 0 mm 0.00 W/m2
04:55 -15.9 °C -16.6 °C 34855.5 hPa Calm     92 % 0 mm 0.00 W/m2
05:00 -16 °C -16.7 °C 34855.5 hPa Calm     92 % 0 mm 0.00 W/m2
05:05 -16 °C -16.7 °C 34855.5 hPa Calm     92 % 0 mm 0.00 W/m2
05:10 -16.1 °C -16.7 °C 34858.9 hPa Calm     92 % 0 mm 0.00 W/m2
05:15 -16.1 °C -16.7 °C 34858.9 hPa Calm     92 % 0 mm 0.00 W/m2
05:20 -16.1 °C -16.8 °C 34865.6 hPa Calm     92 % 0 mm 0.00 W/m2
05:25 -16.2 °C -16.8 °C 34865.6 hPa Calm     92 % 0 mm 0.00 W/m2
05:30 -16.2 °C -16.8 °C 34865.6 hPa Calm     92 % 0 mm 0.00 W/m2
05:35 -16.2 °C -16.9 °C 34865.6 hPa SW 2.6 km/h 5.1 km/h 92 % 0 mm 0.00 W/m2
05:40 -16.2 °C -16.9 °C 34865.6 hPa Calm     92 % 0 mm 0.00 W/m2
05:45 -16.2 °C -16.9 °C 34862.3 hPa Calm     92 % 0 mm 0.00 W/m2
05:50 -16.2 °C -16.8 °C 34865.6 hPa Calm     93 % 0 mm 0.00 W/m2
05:55 -16.2 °C -16.8 °C 34869 hPa Calm     93 % 0 mm 0.00 W/m2
06:00 -16.2 °C -16.7 °C 34869 hPa Calm     93 % 0 mm 0.00 W/m2
06:05 -16.2 °C -16.7 °C 34869 hPa Calm     93 % 0 mm 0.00 W/m2
06:10 -16.1 °C -16.7 °C 34865.6 hPa SW 2.6 km/h 5.1 km/h 93 % 0 mm 0.00 W/m2
06:15 -16.1 °C -16.7 °C 34865.6 hPa SW 2.6 km/h 5.1 km/h 93 % 0 mm 0.00 W/m2
06:20 -16 °C -16.6 °C 34862.3 hPa SW 2.6 km/h 7.7 km/h 93 % 0 mm 0.00 W/m2
06:25 -15.9 °C -16.4 °C 34862.3 hPa WSW 2.6 km/h 5.1 km/h 94 % 0 mm 0.00 W/m2
06:30 -15.8 °C -16.3 °C 34858.9 hPa West 5.1 km/h 10.3 km/h 94 % 0 mm 0.00 W/m2
06:35 -15.7 °C -16.2 °C 34858.9 hPa West 5.1 km/h 10.3 km/h 94 % 0 mm 0.00 W/m2
06:40 -15.4 °C -15.9 °C 34858.9 hPa West 5.1 km/h 7.7 km/h 95 % 0 mm 0.00 W/m2
06:45 -15.3 °C -15.7 °C 34858.9 hPa West 5.1 km/h 10.3 km/h 95 % 0 mm 0.00 W/m2
06:50 -15.1 °C -15.5 °C 34858.9 hPa West 2.6 km/h 10.3 km/h 95 % 0 mm 0.00 W/m2
06:55 -15.1 °C -15.4 °C 34862.3 hPa Calm     95 % 0 mm 0.00 W/m2
07:00 -15.1 °C -15.6 °C 34865.6 hPa Calm     94 % 0 mm 0.00 W/m2
07:05 -15.3 °C -15.9 °C 34869 hPa Calm     93 % 0 mm 0.00 W/m2
07:10 -15.5 °C -16.2 °C 34869 hPa Calm     92 % 0 mm 0.00 W/m2
07:15 -15.7 °C -16.3 °C 34872.4 hPa Calm     92 % 0 mm 0.00 W/m2
07:20 -15.9 °C -16.6 °C 34872.4 hPa Calm     91 % 0 mm 0.00 W/m2
07:25 -16 °C -16.7 °C 34872.4 hPa Calm     92 % 0 mm 0.00 W/m2
07:30 -16.2 °C -16.8 °C 34872.4 hPa Calm   2.6 km/h 92 % 0 mm 0.00 W/m2
07:35 -16.2 °C -16.9 °C 34872.4 hPa Calm     92 % 0 mm 0.00 W/m2
07:40 -16.3 °C -16.9 °C 34872.4 hPa Calm     92 % 0 mm 0.00 W/m2
07:45 -16.3 °C -17 °C 34872.4 hPa Calm     92 % 0 mm 0.00 W/m2
07:50 -16.4 °C -17.1 °C 34875.8 hPa Calm     92 % 0 mm 0.00 W/m2
07:55 -16.5 °C -17.2 °C 34879.2 hPa Calm     92 % 0 mm 0.00 W/m2
08:00 -16.5 °C -17.1 °C 34882.6 hPa Calm   2.6 km/h 93 % 0 mm 0.00 W/m2
08:05 -16.5 °C -17.2 °C 34886 hPa Calm     92 % 0 mm 0.00 W/m2
08:10 -16.6 °C -17.1 °C 34889.3 hPa Calm     93 % 7.62 mm 0.00 W/m2
08:15 -16.5 °C -17.1 °C 34892.7 hPa Calm     93 % 7.62 mm 0.00 W/m2
08:20 -16.4 °C -17 °C 34892.7 hPa West 2.6 km/h 5.1 km/h 93 % 7.62 mm 0.00 W/m2
08:25 -16.2 °C -16.6 °C 34892.7 hPa West 2.6 km/h 5.1 km/h 94 % 7.62 mm 0.00 W/m2
08:30 -16.1 °C -16.6 °C 34896.1 hPa Calm   2.6 km/h 94 % 7.62 mm 0.00 W/m2
08:35 -16 °C -16.5 °C 34899.5 hPa Calm     94 % 7.62 mm 0.00 W/m2
08:40 -16 °C -16.5 °C 34899.5 hPa Calm     94 % 7.62 mm 0.00 W/m2
08:45 -15.9 °C -16.4 °C 34902.9 hPa Calm   2.6 km/h 94 % 7.62 mm 0.00 W/m2
08:50 -15.5 °C -15.9 °C 34902.9 hPa Calm     95 % 7.62 mm 0.00 W/m2
08:55 -15.2 °C -15.6 °C 34902.9 hPa Calm     95 % 7.62 mm 0.00 W/m2
09:00 -14.9 °C -15.3 °C 34902.9 hPa Calm     96 % 7.62 mm 0.00 W/m2
09:10 -14.5 °C -14.8 °C 34902.9 hPa Calm     96 % 0 mm 0.00 W/m2
09:15 -14.3 °C -14.7 °C 34899.5 hPa Calm     96 % 0 mm 0.00 W/m2
09:20 -14.1 °C -14.4 °C 34902.9 hPa Calm     96 % 0 mm 0.00 W/m2
09:25 -14.1 °C -14.4 °C 34902.9 hPa Calm     96 % 0 mm 0.00 W/m2
09:30 -13.9 °C -14.3 °C 34899.5 hPa Calm     96 % 0 mm 0.00 W/m2
09:35 -13.8 °C -14.3 °C 34899.5 hPa Calm     95 % 0 mm 0.00 W/m2
09:40 -13.8 °C -14.3 °C 34902.9 hPa Calm     95 % 0 mm 0.00 W/m2
09:45 -13.9 °C -14.4 °C 34902.9 hPa Calm     94 % 0 mm 0.00 W/m2
09:50 -14 °C -14.5 °C 34899.5 hPa Calm     94 % 0 mm 0.00 W/m2
09:55 -14.1 °C -14.6 °C 34899.5 hPa Calm     93 % 0 mm 0.00 W/m2
10:00 -14.1 °C -14.7 °C 34902.9 hPa Calm     93 % 0 mm 0.00 W/m2
10:05 -14.2 °C -14.8 °C 34899.5 hPa Calm     93 % 0 mm 0.00 W/m2
10:10 -14.1 °C -14.7 °C 34899.5 hPa Calm     93 % 0 mm 0.00 W/m2
10:15 -14 °C -14.5 °C 34902.9 hPa Calm     94 % 0 mm 0.00 W/m2
10:20 -13.9 °C -14.4 °C 34902.9 hPa Calm     94 % 0 mm 0.00 W/m2
10:25 -13.8 °C -14.3 °C 34902.9 hPa Calm     94 % 0 mm 0.00 W/m2
10:30 -13.6 °C -14.1 °C 34902.9 hPa Calm     94 % 0 mm 0.00 W/m2
10:35 -13.3 °C -13.8 °C 34902.9 hPa Calm     94 % 0 mm 0.00 W/m2
10:40 -13.1 °C -13.7 °C 34902.9 hPa Calm     93 % 0 mm 0.00 W/m2
10:45 -12.9 °C -13.6 °C 34902.9 hPa Calm     93 % 0 mm 0.00 W/m2
10:50 -12.8 °C -13.5 °C 34906.3 hPa Calm     92 % 0 mm 0.00 W/m2
10:55 -12.7 °C -13.4 °C 34906.3 hPa Calm     91 % 0 mm 0.00 W/m2
11:00 -12.5 °C -13.4 °C 34906.3 hPa Calm     90 % 0 mm 0.00 W/m2
11:05 -12.4 °C -13.3 °C 34906.3 hPa Calm     89 % 0 mm 0.00 W/m2
11:10 -12.3 °C -13.3 °C 34902.9 hPa Calm     88 % 0 mm 0.00 W/m2
11:15 -12.1 °C -13.3 °C 34906.3 hPa South 2.6 km/h 10.3 km/h 87 % 0 mm 0.00 W/m2
11:20 -12.1 °C -13.4 °C 34906.3 hPa Calm   5.1 km/h 86 % 0 mm 0.00 W/m2
11:25 -12 °C -13.2 °C 34906.3 hPa Calm   2.6 km/h 86 % 0 mm 0.00 W/m2
11:30 -11.9 °C -13.2 °C 34906.3 hPa Calm     85 % 0 mm 0.00 W/m2
11:35 -11.9 °C -13.3 °C 34906.3 hPa Calm     84 % 0 mm 0.00 W/m2
11:40 -11.9 °C -13.4 °C 34906.3 hPa Calm     84 % 0 mm 0.00 W/m2
11:45 -11.9 °C -13.4 °C 34906.3 hPa Calm     84 % 0 mm 0.00 W/m2
11:50 -11.8 °C -13.3 °C 34906.3 hPa Calm     84 % 0 mm 0.00 W/m2
11:55 -11.8 °C -13.3 °C 34906.3 hPa Calm     83 % 0 mm 0.00 W/m2
12:00 -11.7 °C -13.2 °C 34906.3 hPa Calm     83 % 0 mm 0.00 W/m2
12:05 -11.5 °C -13.2 °C 34906.3 hPa Calm     82 % 0 mm 0.00 W/m2
12:10 -11.3 °C -13.2 °C 34902.9 hPa Calm   10.3 km/h 80 % 0 mm 0.00 W/m2
12:15 -11.3 °C -13.5 °C 34902.9 hPa Calm     77 % 0 mm 0.00 W/m2
12:20 -11.2 °C -13.5 °C 34899.5 hPa Calm     76 % 0 mm 0.00 W/m2
12:25 -11.1 °C -13.6 °C 34899.5 hPa ESE 2.6 km/h 5.1 km/h 74 % 0 mm 0.00 W/m2
12:30 -11.1 °C -13.8 °C 34892.7 hPa Calm     72 % 0 mm 0.00 W/m2
12:35 -11 °C -13.8 °C 34892.7 hPa Calm     71 % 0 mm 0.00 W/m2
Meteofigueres
Agradecimientos a Weather Underground - 2.5 mb